When you browse on this site, cookies collect data to enhance your experience and personalize the content and advertising you see.
Visit our Privacy Policy to learn more. By continuing to use the site, you agree to this use of cookies and data.
  • In Latvia
  • List of Countries
  • For 7 days
  • Water Temperature
  • Weather Map
  • Weather Widgets
  • user-avatar
    Login

    Hourly Weather Riga

    Today, 1 April, Wednesday

    Time Temperature Precipitation Wind Pressure Humidity
    00:00 -3°C° 0 mm 6 mps 759 mmHg 71%
    01:00 -3°C° 0 mm 6 mps 758 mmHg 72%
    02:00 -2°C° 0 mm 6 mps 757 mmHg 73%
    03:00 -2°C° 0 mm 7 mps 756 mmHg 80%
    04:00 -2°C° 0 mm 7 mps 755 mmHg 87%
    05:00 -1°C° 0 mm 7 mps 754 mmHg 94%
    06:00 -1°C° 0.1 mm 6 mps 754 mmHg 93%
    07:00 +1°C° 0.1 mm 6 mps 753 mmHg 91%
    08:00 +1°C° 0.1 mm 6 mps 753 mmHg 89%
    09:00 +2°C° 0 mm 6 mps 753 mmHg 85%
    10:00 +3°C° 0 mm 5 mps 753 mmHg 80%
    11:00 +3°C° 0 mm 5 mps 752 mmHg 75%
    12:00 +5°C° 0.1 mm 5 mps 752 mmHg 70%
    13:00 +5°C° 0.1 mm 5 mps 753 mmHg 65%
    14:00 +6°C° 0.1 mm 5 mps 753 mmHg 60%
    15:00 +6°C° 0 mm 5 mps 752 mmHg 60%
    16:00 +6°C° 0 mm 5 mps 752 mmHg 59%
    17:00 +5°C° 0 mm 4 mps 752 mmHg 59%
    18:00 +5°C° 0 mm 4 mps 752 mmHg 65%
    19:00 +4°C° 0 mm 4 mps 752 mmHg 72%
    20:00 +3°C° 0 mm 3 mps 751 mmHg 79%
    21:00 +3°C° 0 mm 3 mps 751 mmHg 81%
    22:00 +1°C° 0 mm 4 mps 750 mmHg 82%
    23:00 +1°C° 0 mm 4 mps 750 mmHg 84%

    Tomorrow, 2 April, Thursday

    Time Temperature Precipitation Wind Pressure Humidity
    00:00 +1°C° 0 mm 4 mps 749 mmHg 86%
    01:00 +2°C° 0 mm 3 mps 749 mmHg 89%
    02:00 +3°C° 0 mm 3 mps 749 mmHg 91%
    03:00 +3°C° 0.1 mm 3 mps 748 mmHg 90%
    04:00 +3°C° 0.1 mm 4 mps 747 mmHg 90%
    05:00 +3°C° 0.1 mm 4 mps 747 mmHg 89%
    06:00 +3°C° 0 mm 4 mps 747 mmHg 87%
    07:00 +2°C° 0 mm 5 mps 747 mmHg 85%
    08:00 +3°C° 0 mm 5 mps 747 mmHg 82%
    09:00 +3°C° 0 mm 5 mps 747 mmHg 81%
    10:00 +3°C° 0 mm 5 mps 747 mmHg 79%
    11:00 +5°C° 0 mm 5 mps 747 mmHg 77%
    12:00 +4°C° 0 mm 6 mps 747 mmHg 70%
    13:00 +5°C° 0 mm 6 mps 747 mmHg 64%
    14:00 +7°C° 0 mm 6 mps 747 mmHg 57%
    15:00 +6°C° 0 mm 7 mps 746 mmHg 58%
    16:00 +6°C° 0 mm 7 mps 746 mmHg 59%
    17:00 +5°C° 0 mm 7 mps 745 mmHg 60%
    18:00 +5°C° 0 mm 8 mps 745 mmHg 63%
    19:00 +4°C° 0 mm 8 mps 745 mmHg 67%
    20:00 +2°C° 0 mm 8 mps 745 mmHg 71%
    21:00 +2°C° 0 mm 8 mps 744 mmHg 70%
    22:00 +2°C° 0 mm 9 mps 743 mmHg 70%
    23:00 +3°C° 0 mm 9 mps 742 mmHg 69%

    Day after tomorrow, 3 April, Friday

    Time Temperature Precipitation Wind Pressure Humidity
    00:00 +2°C° 0.2 mm 9 mps 742 mmHg 72%
    01:00 +2°C° 0.2 mm 9 mps 742 mmHg 76%
    02:00 +2°C° 0.2 mm 9 mps 741 mmHg 79%
    03:00 +1°C° 0.6 mm 8 mps 741 mmHg 77%
    04:00 +2°C° 0.6 mm 7 mps 741 mmHg 75%
    05:00 0°C° 0.6 mm 7 mps 740 mmHg 72%
    06:00 0°C° 0 mm 7 mps 741 mmHg 69%
    07:00 0°C° 0 mm 8 mps 741 mmHg 65%
    08:00 0°C° 0 mm 9 mps 742 mmHg 62%
    09:00 +1°C° 0 mm 8 mps 743 mmHg 57%
    10:00 +2°C° 0 mm 8 mps 743 mmHg 53%
    11:00 +4°C° 0 mm 7 mps 744 mmHg 49%
    12:00 +5°C° 0 mm 7 mps 745 mmHg 45%
    13:00 +5°C° 0 mm 7 mps 745 mmHg 41%
    14:00 +6°C° 0 mm 7 mps 746 mmHg 37%
    15:00 +5°C° 0 mm 7 mps 747 mmHg 38%
    16:00 +5°C° 0 mm 7 mps 747 mmHg 39%
    17:00 +4°C° 0 mm 7 mps 748 mmHg 40%
    18:00 +3°C° 0.1 mm 6 mps 748 mmHg 48%
    19:00 +2°C° 0.1 mm 6 mps 749 mmHg 55%
    20:00 +1°C° 0.1 mm 5 mps 750 mmHg 63%
    21:00 0°C° 0 mm 5 mps 750 mmHg 63%
    22:00 0°C° 0 mm 5 mps 751 mmHg 63%
    23:00 0°C° 0 mm 5 mps 752 mmHg 64%

    4 April, Saturday

    Time Temperature Precipitation Wind Pressure Humidity
    00:00 0°C° 0 mm 5 mps 752 mmHg 64%
    01:00 -1°C° 0 mm 5 mps 753 mmHg 64%
    02:00 -1°C° 0 mm 5 mps 753 mmHg 64%
    03:00 -1°C° 0.1 mm 5 mps 754 mmHg 67%
    04:00 -1°C° 0.1 mm 5 mps 754 mmHg 69%
    05:00 -1°C° 0.1 mm 5 mps 755 mmHg 72%
    06:00 0°C° 0.1 mm 5 mps 755 mmHg 68%
    07:00 +1°C° 0.1 mm 6 mps 756 mmHg 65%
    08:00 +1°C° 0.1 mm 6 mps 757 mmHg 61%
    09:00 +2°C° 0.1 mm 6 mps 757 mmHg 55%
    10:00 +3°C° 0.1 mm 6 mps 758 mmHg 49%
    11:00 +4°C° 0.1 mm 6 mps 758 mmHg 42%
    12:00 +4°C° 0.1 mm 6 mps 759 mmHg 41%
    13:00 +4°C° 0.1 mm 6 mps 760 mmHg 41%
    14:00 +4°C° 0.1 mm 6 mps 760 mmHg 40%
    15:00 +4°C° 0.1 mm 6 mps 761 mmHg 43%
    16:00 +3°C° 0.1 mm 7 mps 762 mmHg 45%
    17:00 +1°C° 0.1 mm 8 mps 763 mmHg 48%
    18:00 +2°C° 0 mm 7 mps 764 mmHg 51%
    19:00 +1°C° 0 mm 5 mps 765 mmHg 53%
    20:00 0°C° 0 mm 4 mps 766 mmHg 56%
    21:00 -1°C° 0 mm 4 mps 767 mmHg 57%
    22:00 -1°C° 0 mm 4 mps 768 mmHg 59%
    23:00 -1°C° 0 mm 4 mps 769 mmHg 61%

    5 April, Sunday

    Time Temperature Precipitation Wind Pressure Humidity
    00:00 -1°C° 0 mm 3 mps 770 mmHg 63%
    01:00 -1°C° 0 mm 3 mps 770 mmHg 66%
    02:00 -1°C° 0 mm 3 mps 771 mmHg 68%
    03:00 -1°C° 0 mm 3 mps 772 mmHg 69%
    04:00 -1°C° 0 mm 3 mps 772 mmHg 70%
    05:00 -1°C° 0 mm 3 mps 773 mmHg 71%
    06:00 0°C° 0 mm 3 mps 774 mmHg 64%
    07:00 +1°C° 0 mm 3 mps 774 mmHg 57%
    08:00 +2°C° 0 mm 3 mps 775 mmHg 51%
    09:00 +3°C° 0 mm 3 mps 775 mmHg 44%
    10:00 +5°C° 0 mm 3 mps 776 mmHg 37%
    11:00 +7°C° 0 mm 3 mps 776 mmHg 30%
    12:00 +7°C° 0 mm 2 mps 776 mmHg 30%
    13:00 +8°C° 0 mm 2 mps 776 mmHg 29%
    14:00 +9°C° 0 mm 1 mps 776 mmHg 29%
    15:00 +9°C° 0 mm 1 mps 776 mmHg 30%
    16:00 +9°C° 0 mm 1 mps 776 mmHg 32%
    17:00 +9°C° 0 mm 1 mps 776 mmHg 33%
    18:00 +8°C° 0 mm 1 mps 776 mmHg 39%
    19:00 +5°C° 0 mm 2 mps 776 mmHg 44%
    20:00 +4°C° 0 mm 2 mps 776 mmHg 50%
    21:00 +3°C° 0 mm 2 mps 776 mmHg 53%
    22:00 +3°C° 0 mm 2 mps 777 mmHg 56%
    23:00 +1°C° 0 mm 3 mps 777 mmHg 58%

    6 April, Monday

    Time Temperature Precipitation Wind Pressure Humidity
    00:00 +1°C° 0 mm 3 mps 777 mmHg 60%
    01:00 0°C° 0 mm 3 mps 777 mmHg 62%
    02:00 0°C° 0 mm 3 mps 777 mmHg 64%
    03:00 0°C° 0 mm 3 mps 777 mmHg 64%
    04:00 -1°C° 0 mm 3 mps 777 mmHg 64%
    05:00 -1°C° 0 mm 3 mps 777 mmHg 64%
    06:00 -1°C° 0 mm 4 mps 777 mmHg 60%
    07:00 0°C° 0 mm 4 mps 777 mmHg 55%
    08:00 +3°C° 0 mm 4 mps 777 mmHg 51%
    09:00 +4°C° 0 mm 4 mps 776 mmHg 47%
    10:00 +6°C° 0 mm 4 mps 776 mmHg 44%
    11:00 +8°C° 0 mm 4 mps 776 mmHg 40%
    12:00 +9°C° 0 mm 5 mps 776 mmHg 39%
    13:00 +9°C° 0 mm 5 mps 776 mmHg 38%
    14:00 +10°C° 0 mm 5 mps 775 mmHg 37%
    15:00 +10°C° 0 mm 5 mps 775 mmHg 39%
    16:00 +10°C° 0 mm 5 mps 775 mmHg 41%
    17:00 +10°C° 0 mm 5 mps 774 mmHg 42%
    18:00 +10°C° 0 mm 4 mps 774 mmHg 48%
    19:00 +7°C° 0 mm 4 mps 774 mmHg 55%
    20:00 +6°C° 0 mm 4 mps 774 mmHg 61%
    21:00 +5°C° 0 mm 4 mps 774 mmHg 62%
    22:00 +5°C° 0 mm 4 mps 774 mmHg 63%
    23:00 +5°C° 0 mm 4 mps 774 mmHg 65%
    Show more